Date String (YYYY-MM-DD hh:mm:ss) UTC,Instrument flags,Ambient pressure (hPa),Sample flow (lpm),Bypass flow (lpm),Sample temperature (°C),Ambient temperature (°C),ASC tube jacket temperature (°C),LED temperature (°C),Box temperature (°C),Sample RH (%),Span deviation,Mass concentration (μg/m³),Mass concentration (μg/m³),Mass concentration (μg/m³)
DateTimeUTC,F1_M11,P_M11,Q1_M11,Q2_M11,T1_M11,T2_M11,T3_M11,T4_M11,T5_M11,U1_M11,ZSPAN_M11,X0_M11,X2_M11,X1_M11
2021-12-01 20:00:00,,0827.8,5.02,0.00,31.1,30.3,00.0,40.0,32.8,09.6,0000.0,0003.55,0000.56,0000.29
2021-12-01 20:01:00,,0827.7,4.99,0.00,31.1,29.3,00.0,40.0,32.6,10.0,0000.0,0005.11,0000.75,0000.35
2021-12-01 20:02:00,,0827.7,4.98,0.00,30.9,27.4,00.0,39.9,32.2,10.4,0000.0,0006.76,0001.04,0000.46
2021-12-01 20:03:00,,0827.7,5.01,0.00,30.8,27.1,00.0,39.9,32.0,10.2,0000.0,0006.95,0001.13,0000.53
2021-12-01 20:04:00,,0827.7,5.00,0.00,30.7,27.4,00.0,39.8,32.0,10.3,0000.0,0007.31,0001.30,0000.60
2021-12-01 20:05:00,,0827.8,5.00,0.00,30.6,27.9,00.0,39.8,32.1,10.0,0000.0,0008.17,0001.41,0000.66
2021-12-01 20:06:00,,0827.7,5.01,0.00,30.6,28.3,00.0,39.7,32.1,09.9,0000.0,0008.32,0001.53,0000.71
2021-12-01 20:07:00,,0827.8,4.99,0.00,30.6,28.6,00.0,39.7,32.1,09.9,0000.0,0009.39,0001.62,0000.74
2021-12-01 20:08:00,,0827.8,5.00,0.00,30.6,28.9,00.0,39.7,32.2,09.9,0000.0,0010.05,0001.72,0000.78
2021-12-01 20:09:00,,0827.8,5.00,0.00,30.6,29.1,00.0,39.7,32.2,10.0,0000.0,0010.51,0001.84,0000.82
2021-12-01 20:10:00,,0827.8,5.00,0.00,30.6,29.3,00.0,39.7,32.3,10.0,0000.0,0011.82,0001.97,0000.87
2021-12-01 20:11:00,,0827.8,5.00,0.00,30.7,29.4,00.0,39.7,32.3,09.9,0000.0,0012.34,0002.14,0000.93
2021-12-01 20:12:00,,0827.8,5.01,0.00,30.7,29.6,00.0,39.7,32.3,09.9,0000.0,0012.43,0002.14,0000.93
2021-12-01 20:13:00,,0827.8,4.99,0.00,30.7,29.7,00.0,39.7,32.4,09.9,0000.0,0012.11,0002.02,0000.88
2021-12-01 20:14:00,,0827.8,5.00,0.00,30.7,29.8,00.0,39.7,32.4,09.9,0000.0,0012.28,0001.94,0000.80
2021-12-01 20:15:00,,0827.8,5.00,0.00,30.8,29.8,00.0,39.7,32.5,10.0,0000.0,0012.49,0001.91,0000.75
2021-12-01 20:16:00,,0827.8,5.01,0.00,30.8,29.9,00.0,39.7,32.5,09.9,0000.0,0011.83,0001.90,0000.74
2021-12-01 20:17:00,,0827.8,5.00,0.00,30.8,30.0,00.0,39.7,32.5,09.9,0000.0,0012.28,0001.89,0000.74
2021-12-01 20:18:00,,0827.8,5.00,0.00,30.9,30.0,00.0,39.7,32.6,09.9,0000.0,0010.94,0001.86,0000.73
2021-12-01 20:19:00,,0827.8,5.02,0.00,30.9,30.1,00.0,39.8,32.6,10.0,0000.0,0010.21,0001.86,0000.73
2021-12-01 20:20:00,,0827.8,5.00,0.00,30.9,29.9,00.0,39.8,32.6,09.9,0000.0,0009.88,0001.85,0000.72
2021-12-01 20:21:00,,0827.8,5.01,0.00,30.9,28.2,00.0,39.8,32.2,09.7,0000.0,0008.79,0001.81,0000.72
2021-12-01 20:22:00,,0827.7,5.00,0.00,30.7,26.7,00.0,39.7,31.8,09.8,0000.0,0009.01,0001.69,0000.69
2021-12-01 20:23:00,,0827.8,4.99,0.00,30.6,26.8,00.0,39.7,31.8,09.9,0000.0,0009.04,0001.56,0000.67
2021-12-01 20:24:00,,0827.7,5.00,0.00,30.5,27.3,00.0,39.6,31.9,10.0,0000.0,0008.94,0001.53,0000.65
2021-12-01 20:25:00,,0827.8,5.00,0.00,30.4,27.7,00.0,39.6,31.9,10.0,0000.0,0008.70,0001.40,0000.64
2021-12-01 20:26:00,,0827.8,5.01,0.00,30.4,28.1,00.0,39.6,32.0,10.0,0000.0,0008.66,0001.33,0000.63
2021-12-01 20:27:00,,0827.8,4.99,0.00,30.4,28.5,00.0,39.5,32.0,10.0,0000.0,0008.70,0001.27,0000.60
2021-12-01 20:28:00,,0827.8,5.00,0.00,30.4,28.8,00.0,39.5,32.1,10.0,0000.0,0007.65,0001.23,0000.57
2021-12-01 20:29:00,,0827.8,4.99,0.00,30.4,29.0,00.0,39.5,32.1,10.0,0000.0,0007.67,0001.24,0000.55
2021-12-01 20:30:00,,0827.8,5.00,0.00,30.5,29.2,00.0,39.5,32.1,10.0,0000.0,0007.62,0001.18,0000.53
2021-12-01 20:31:00,,0827.8,5.01,0.00,30.5,29.3,00.0,39.5,32.2,10.0,0000.0,0007.57,0001.14,0000.51
2021-12-01 20:32:00,,0827.8,5.00,0.00,30.5,29.4,00.0,39.5,32.2,09.9,0000.0,0007.61,0001.10,0000.47
2021-12-01 20:33:00,,0827.7,5.00,0.00,30.5,29.5,00.0,39.5,32.3,09.8,0000.0,0006.66,0001.09,0000.46
2021-12-01 20:34:00,,0827.8,5.01,0.00,30.6,29.6,00.0,39.5,32.3,10.0,0000.0,0005.95,0001.09,0000.45
2021-12-01 20:35:00,,0827.8,5.01,0.00,30.6,29.7,00.0,39.5,32.3,10.3,0000.0,0005.93,0001.08,0000.43
2021-12-01 20:36:00,,0827.9,4.98,0.00,30.6,29.8,00.0,39.6,32.4,10.3,0000.0,0007.06,0001.10,0000.41
2021-12-01 20:37:00,,0827.9,5.01,0.00,30.7,29.9,00.0,39.6,32.4,10.2,0000.0,0007.66,0001.13,0000.39
2021-12-01 20:38:00,,0827.9,4.99,0.00,30.7,29.9,00.0,39.6,32.5,10.0,0000.0,0007.53,0001.10,0000.38
2021-12-01 20:39:00,,0827.9,5.01,0.00,30.7,29.9,00.0,39.6,32.5,10.0,0000.0,0007.48,0001.06,0000.37
2021-12-01 20:40:00,,0827.9,5.00,0.00,30.8,30.0,00.0,39.6,32.5,10.0,0000.0,0007.42,0001.00,0000.35
2021-12-01 20:41:00,,0827.9,5.00,0.00,30.7,28.5,00.0,39.6,32.2,10.0,0000.0,0007.67,0001.00,0000.34
2021-12-01 20:42:00,,0828.0,5.01,0.00,30.6,26.6,00.0,39.6,31.8,10.1,0000.0,0007.82,0001.06,0000.34
2021-12-01 20:43:00,,0828.0,5.01,0.00,30.5,26.5,00.0,39.6,31.7,10.1,0000.0,0007.76,0001.05,0000.32
2021-12-01 20:44:00,,0828.0,4.99,0.00,30.4,26.9,00.0,39.5,31.8,10.1,0000.0,0007.68,0001.06,0000.31
2021-12-01 20:45:00,,0827.9,5.01,0.00,30.3,27.4,00.0,39.4,31.7,10.0,0000.0,0007.69,0001.06,0000.30
2021-12-01 20:46:00,,0828.0,4.99,0.00,30.3,27.8,00.0,39.4,31.8,10.0,0000.0,0006.73,0001.01,0000.30
2021-12-01 20:47:00,,0828.0,4.99,0.00,30.3,28.2,00.0,39.4,31.9,10.0,0000.0,0004.97,0000.93,0000.29
2021-12-01 20:48:00,,0828.0,5.00,0.00,30.3,28.5,00.0,39.4,31.9,10.0,0000.0,0003.66,0000.88,0000.29
2021-12-01 20:49:00,,0828.0,5.01,0.00,30.3,28.8,00.0,39.4,32.0,09.9,0000.0,0003.58,0000.86,0000.28
2021-12-01 20:50:00,,0828.0,5.00,0.00,30.3,29.0,00.0,39.4,32.0,09.9,0000.0,0003.45,0000.85,0000.28
2021-12-01 20:51:00,,0828.0,4.99,0.00,30.4,29.1,00.0,39.4,32.1,10.0,0000.0,0003.30,0000.83,0000.28
2021-12-01 20:52:00,,0828.0,5.00,0.00,30.4,29.3,00.0,39.4,32.1,10.1,0000.0,0003.14,0000.88,0000.30
2021-12-01 20:53:00,,0828.0,5.00,0.00,30.4,29.4,00.0,39.4,32.1,10.0,0000.0,0003.15,0000.82,0000.29
2021-12-01 20:54:00,,0827.9,5.01,0.00,30.4,29.5,00.0,39.4,32.2,09.9,0000.0,0002.86,0000.76,0000.29
2021-12-01 20:55:00,,0827.9,5.01,0.00,30.5,29.6,00.0,39.4,32.2,09.8,0000.0,0003.02,0000.72,0000.29
2021-12-01 20:56:00,,0828.0,5.00,0.00,30.5,29.6,00.0,39.4,32.3,09.8,0000.0,0003.31,0000.73,0000.29
2021-12-01 20:57:00,,0827.9,5.00,0.00,30.6,29.7,00.0,39.4,32.3,09.7,0000.0,0004.16,0000.84,0000.29
2021-12-01 20:58:00,,0828.0,5.01,0.00,30.6,29.8,00.0,39.5,32.4,09.8,0000.0,0004.52,0000.87,0000.29
2021-12-01 20:59:00,,0828.0,4.99,0.00,30.6,29.5,00.0,39.5,32.3,09.6,0000.0,0004.43,0000.87,0000.29
